This is the latest recevied weather packets stored in our database for station/object OK1PNK-5. If no packets are shown the sender has not sent any weather packets the latest 10 day(s).
| Time | Temp. | Humidity | Pressure | Rain* | Wind** | Luminosity | Snow |
|---|---|---|---|---|---|---|---|
| 1777885943 | 21.67° C | 40% | 973.1 hPa | 0 mm | - | - | - |
| 1777885343 | 21.67° C | 41% | 973.1 hPa | 0 mm | - | - | - |
| 1777884743 | 21.11° C | 43% | 973.2 hPa | 0 mm | - | - | - |
| 1777884143 | 20.56° C | 45% | 973.2 hPa | 0 mm | - | - | - |
| 1777883543 | 20.56° C | 47% | 973.1 hPa | 0 mm | - | - | - |
| 1777882943 | 20° C | 47% | 973.1 hPa | 0 mm | - | - | - |
| 1777882343 | 19.44° C | 51% | 973.1 hPa | 0 mm | - | - | - |
| 1777881743 | 19.44° C | 52% | 973 hPa | 0 mm | - | - | - |
| 1777881143 | 18.89° C | 52% | 973 hPa | 0 mm | - | - | - |
| 1777880543 | 18.33° C | 54% | 973 hPa | 0 mm | - | - | - |
| 1777879943 | 17.78° C | 55% | 973 hPa | 0 mm | - | - | - |
| 1777879343 | 17.22° C | 55% | 973.1 hPa | 0 mm | - | - | - |
| 1777878743 | 17.22° C | 57% | 973 hPa | 0 mm | - | - | - |
| 1777878143 | 16.67° C | 56% | 972.9 hPa | 0 mm | - | - | - |
| 1777877543 | 16.11° C | 56% | 972.7 hPa | 0 mm | - | - | - |
| 1777876943 | 16.11° C | 56% | 972.7 hPa | 0 mm | - | - | - |
| 1777876343 | 15.56° C | 57% | 972.6 hPa | 0 mm | - | - | - |
| 1777875743 | 15.56° C | 58% | 972.6 hPa | 0 mm | - | - | - |
| 1777875143 | 15° C | 58% | 972.7 hPa | 0 mm | - | - | - |
| 1777874543 | 14.44° C | 57% | 972.8 hPa | 0 mm | - | - | - |
| 1777873943 | 14.44° C | 57% | 972.7 hPa | 0 mm | - | - | - |
| 1777873343 | 13.89° C | 56% | 972.6 hPa | 0 mm | - | - | - |
| 1777872743 | 13.89° C | 56% | 972.6 hPa | 0 mm | - | - | - |
| 1777872143 | 13.89° C | 56% | 972.6 hPa | 0 mm | - | - | - |
| 1777871543 | 13.89° C | 56% | 972.6 hPa | 0 mm | - | - | - |
* Rain latest hour (hover to see other rain measurements)
** Current wind speed in m/s (hover to see current wind gust speed)